| time (UTC) | temp F | wind direction | speed knots | gust knots | rain 1hr in | rain 24hr in | rain mn in | humidity % | barometer mb |
| 20260507090653 | 55 | 355 | 0.0 | 0.0 | 0.00 | 0.00 | 0.00 | 85 | 1017.1 |
| 20260507090153 | 55 | 355 | 0.0 | 0.0 | 0.00 | 0.00 | 0.00 | 85 | 1017.0 |
| 20260507085652 | 55 | 355 | 0.0 | 0.0 | 0.00 | 0.00 | 0.00 | 85 | 1017.0 |
| 20260507085150 | 55 | 355 | 0.0 | 0.0 | 0.00 | 0.00 | 0.00 | 85 | 1017.1 |
| 20260507084651 | 55 | 355 | 0.0 | 0.0 | 0.00 | 0.00 | 0.00 | 84 | 1017.2 |
| 20260507084148 | 55 | 355 | 0.0 | 0.0 | 0.00 | 0.00 | 0.00 | 84 | 1017.2 |
| 20260507083647 | 55 | 340 | 0.0 | 0.0 | 0.00 | 0.00 | 0.00 | 84 | 1017.2 |
| 20260507083141 | 55 | 340 | 0.0 | 0.0 | 0.00 | 0.00 | 0.00 | 84 | 1017.3 |
| 20260507082634 | 55 | 340 | 0.0 | 0.0 | 0.00 | 0.00 | 0.00 | 84 | 1017.3 |
| 20260507082130 | 55 | 340 | 0.0 | 0.0 | 0.00 | 0.00 | 0.00 | 84 | 1017.3 |
| 20260507081623 | 55 | 340 | 0.0 | 0.0 | 0.00 | 0.00 | 0.00 | 84 | 1017.2 |
| 20260507080105 | 56 | 338 | 0.9 | 2.6 | 0.00 | 0.00 | 0.00 | 84 | 1017.4 |
| 20260507075559 | 56 | 347 | 0.0 | 2.6 | 0.00 | 0.00 | 0.00 | 84 | 1017.3 |
| 20260507075052 | 56 | 340 | 0.0 | 2.6 | 0.00 | 0.00 | 0.00 | 84 | 1017.3 |
| 20260507074546 | 56 | 340 | 0.0 | 2.6 | 0.00 | 0.00 | 0.00 | 84 | 1017.3 |
| 20260507073535 | 56 | 355 | 0.0 | 1.7 | 0.00 | 0.00 | 0.00 | 83 | 1017.5 |
| 20260507073030 | 56 | 0 | 0.0 | 1.7 | 0.00 | 0.00 | 0.00 | 83 | 1017.4 |
| 20260507072524 | 56 | 350 | 0.9 | 2.6 | 0.00 | 0.00 | 0.00 | 83 | 1017.5 |
| 20260507071004 | 56 | 0 | 0.0 | 0.9 | 0.00 | 0.00 | 0.00 | 82 | 1017.4 |
| 20260507065953 | 56 | 332 | 0.0 | 1.7 | 0.00 | 0.00 | 0.00 | 81 | 1017.5 |
| 20260507064941 | 57 | 355 | 0.0 | 0.0 | 0.00 | 0.00 | 0.00 | 80 | 1017.6 |
| 20260507063929 | 57 | 355 | 0.0 | 1.7 | 0.00 | 0.00 | 0.00 | 80 | 1017.7 |
| 20260507063424 | 57 | 345 | 0.0 | 0.0 | 0.00 | 0.00 | 0.00 | 80 | 1017.7 |
| 20260507062419 | 58 | 355 | 0.0 | 0.0 | 0.00 | 0.00 | 0.00 | 79 | 1017.6 |
| 20260507061917 | 58 | 355 | 0.0 | 0.0 | 0.00 | 0.00 | 0.00 | 79 | 1017.8 |
| 20260507061417 | 58 | 355 | 0.0 | 0.0 | 0.00 | 0.00 | 0.00 | 78 | 1017.6 |
| 20260507060417 | 59 | 346 | 0.0 | 1.7 | 0.00 | 0.00 | 0.00 | 77 | 1017.8 |
| 20260507055919 | 59 | 19 | 0.9 | 2.6 | 0.00 | 0.00 | 0.00 | 76 | 1017.6 |
| 20260507055419 | 60 | 37 | 0.0 | 2.6 | 0.00 | 0.00 | 0.00 | 75 | 1017.8 |
| 20260507054415 | 61 | 355 | 0.9 | 1.7 | 0.00 | 0.00 | 0.00 | 73 | 1017.7 |
| 20260507053912 | 61 | 33 | 0.0 | 1.7 | 0.00 | 0.00 | 0.00 | 72 | 1017.9 |
| 20260507053410 | 62 | 13 | 0.0 | 1.7 | 0.00 | 0.00 | 0.00 | 72 | 1017.7 |
| 20260507052907 | 62 | 31 | 0.0 | 3.5 | 0.00 | 0.00 | 0.00 | 71 | 1017.7 |
| 20260507052408 | 63 | 199 | 0.9 | 3.5 | 0.00 | 0.00 | 0.00 | 71 | 1017.7 |
| 20260507051907 | 63 | 222 | 0.9 | 2.6 | 0.00 | 0.00 | 0.00 | 71 | 1017.7 |
| 20260507051405 | 63 | 225 | 0.9 | 2.6 | 0.00 | 0.00 | 0.00 | 71 | 1017.8 |
| 20260507050904 | 63 | 236 | 0.9 | 2.6 | 0.00 | 0.00 | 0.00 | 70 | 1017.8 |
| 20260507050404 | 63 | 232 | 0.9 | 1.7 | 0.00 | 0.00 | 0.00 | 70 | 1017.8 |
| 20260507045904 | 63 | 225 | 0.9 | 2.6 | 0.00 | 0.00 | 0.00 | 69 | 1017.7 |
| 20260507045356 | 63 | 207 | 0.0 | 2.6 | 0.00 | 0.00 | 0.00 | 69 | 1017.7 |
| 20260507044857 | 64 | 214 | 0.9 | 2.6 | 0.00 | 0.00 | 0.00 | 69 | 1017.7 |
| 20260507043837 | 64 | 210 | 0.9 | 3.5 | 0.00 | 0.00 | 0.00 | 68 | 1017.7 |
| 20260507043332 | 64 | 189 | 0.9 | 3.5 | 0.00 | 0.00 | 0.00 | 68 | 1017.6 |
| 20260507042825 | 64 | 202 | 1.7 | 4.3 | 0.00 | 0.00 | 0.00 | 68 | 1017.7 |
| 20260507042319 | 64 | 182 | 2.6 | 4.3 | 0.00 | 0.00 | 0.00 | 67 | 1017.6 |
| 20260507041813 | 64 | 219 | 1.7 | 4.3 | 0.00 | 0.00 | 0.00 | 67 | 1017.6 |
| 20260507041307 | 64 | 220 | 1.7 | 6.1 | 0.00 | 0.00 | 0.00 | 67 | 1017.6 |
| 20260507040801 | 65 | 257 | 1.7 | 6.1 | 0.00 | 0.00 | 0.00 | 67 | 1017.6 |
| 20260507035244 | 65 | 221 | 2.6 | 6.1 | 0.00 | 0.00 | 0.00 | 66 | 1017.3 |
| 20260507034737 | 65 | 232 | 1.7 | 6.1 | 0.00 | 0.00 | 0.00 | 66 | 1017.3 |
| 20260507034231 | 65 | 221 | 1.7 | 7.0 | 0.00 | 0.00 | 0.00 | 66 | 1017.2 |
| 20260507033725 | 65 | 219 | 3.5 | 7.0 | 0.00 | 0.00 | 0.00 | 66 | 1017.1 |
| 20260507033219 | 66 | 198 | 2.6 | 6.1 | 0.00 | 0.00 | 0.00 | 65 | 1017.0 |
| 20260507032714 | 66 | 217 | 2.6 | 6.1 | 0.00 | 0.00 | 0.00 | 65 | 1017.1 |
| 20260507032206 | 66 | 221 | 1.7 | 7.8 | 0.00 | 0.00 | 0.00 | 64 | 1017.0 |
| 20260507031702 | 66 | 244 | 2.6 | 7.8 | 0.00 | 0.00 | 0.00 | 63 | 1016.9 |
| 20260507031155 | 67 | 200 | 2.6 | 7.0 | 0.00 | 0.00 | 0.00 | 63 | 1016.8 |
| 20260507030650 | 67 | 215 | 2.6 | 7.0 | 0.00 | 0.00 | 0.00 | 62 | 1016.8 |
| 20260507030143 | 67 | 228 | 2.6 | 7.0 | 0.00 | 0.00 | 0.00 | 62 | 1016.8 |
| 20260507025637 | 67 | 232 | 2.6 | 7.0 | 0.00 | 0.00 | 0.00 | 62 | 1016.7 |
| 20260507025131 | 67 | 242 | 3.5 | 7.0 | 0.00 | 0.00 | 0.00 | 62 | 1016.7 |
| 20260507024625 | 67 | 229 | 2.6 | 7.8 | 0.00 | 0.00 | 0.00 | 62 | 1016.6 |
| 20260507024119 | 68 | 200 | 3.5 | 7.8 | 0.00 | 0.00 | 0.00 | 61 | 1016.7 |
| 20260507023613 | 68 | 231 | 3.5 | 8.7 | 0.00 | 0.00 | 0.00 | 61 | 1016.5 |
| 20260507023107 | 68 | 231 | 3.5 | 8.7 | 0.00 | 0.00 | 0.00 | 61 | 1016.4 |
| 20260507022056 | 69 | 217 | 2.6 | 6.1 | 0.00 | 0.00 | 0.00 | 60 | 1016.2 |
| 20260507021549 | 69 | 215 | 2.6 | 6.1 | 0.00 | 0.00 | 0.00 | 60 | 1016.2 |
| 20260507020031 | 70 | 209 | 3.5 | 7.0 | 0.00 | 0.00 | 0.00 | 60 | 1015.9 |
| 20260507015525 | 70 | 173 | 4.3 | 7.8 | 0.00 | 0.00 | 0.00 | 60 | 1015.9 |
| 20260507015019 | 70 | 167 | 4.3 | 7.8 | 0.00 | 0.00 | 0.00 | 59 | 1015.9 |
| 20260507014007 | 70 | 165 | 4.3 | 7.8 | 0.00 | 0.00 | 0.00 | 58 | 1015.9 |
| 20260507013501 | 70 | 167 | 5.2 | 9.6 | 0.00 | 0.00 | 0.00 | 58 | 1015.9 |
| 20260507012955 | 70 | 170 | 5.2 | 9.6 | 0.00 | 0.00 | 0.00 | 58 | 1015.8 |
| 20260507012450 | 71 | 205 | 5.2 | 9.6 | 0.00 | 0.00 | 0.00 | 57 | 1015.6 |
| 20260507011439 | 71 | 202 | 5.2 | 10.4 | 0.00 | 0.00 | 0.00 | 57 | 1015.7 |
| 20260507010932 | 71 | 224 | 5.2 | 10.4 | 0.00 | 0.00 | 0.00 | 57 | 1015.7 |
| 20260507005929 | 71 | 185 | 6.1 | 12.2 | 0.00 | 0.00 | 0.00 | 56 | 1015.6 |
| 20260507005429 | 72 | 209 | 6.1 | 12.2 | 0.00 | 0.00 | 0.00 | 56 | 1015.5 |
| 20260507004930 | 72 | 192 | 5.2 | 8.7 | 0.00 | 0.00 | 0.00 | 55 | 1015.5 |
| 20260507004427 | 72 | 242 | 5.2 | 10.4 | 0.00 | 0.00 | 0.00 | 56 | 1015.6 |
| 20260507003929 | 72 | 193 | 5.2 | 10.4 | 0.00 | 0.00 | 0.00 | 55 | 1015.6 |
| 20260507002926 | 72 | 180 | 4.3 | 8.7 | 0.00 | 0.00 | 0.00 | 55 | 1015.5 |
| 20260507002426 | 72 | 202 | 5.2 | 10.4 | 0.00 | 0.00 | 0.00 | 54 | 1015.5 |
| 20260507001927 | 73 | 206 | 5.2 | 10.4 | 0.00 | 0.00 | 0.00 | 54 | 1015.5 |
| 20260507000427 | 73 | 171 | 5.2 | 11.3 | 0.00 | 0.00 | 0.00 | 53 | 1015.4 |
| 20260506235927 | 73 | 181 | 4.3 | 9.6 | 0.00 | 0.00 | 0.00 | 53 | 1015.5 |
| 20260506234927 | 73 | 190 | 3.5 | 9.6 | 0.00 | 0.00 | 0.00 | 53 | 1015.5 |
| 20260506234427 | 73 | 231 | 4.3 | 9.6 | 0.00 | 0.00 | 0.00 | 54 | 1015.4 |
| 20260506232909 | 73 | 205 | 4.3 | 8.7 | 0.00 | 0.00 | 0.00 | 53 | 1015.5 |
| 20260506232403 | 73 | 175 | 4.3 | 9.6 | 0.00 | 0.00 | 0.00 | 53 | 1015.5 |
| 20260506231857 | 73 | 168 | 5.2 | 9.6 | 0.00 | 0.00 | 0.00 | 54 | 1015.6 |
| 20260506231351 | 73 | 236 | 5.2 | 8.7 | 0.00 | 0.00 | 0.00 | 54 | 1015.7 |
| 20260506230346 | 74 | 165 | 5.2 | 11.3 | 0.00 | 0.00 | 0.00 | 52 | 1015.8 |
| 20260506225846 | 74 | 205 | 4.3 | 10.4 | 0.00 | 0.00 | 0.00 | 51 | 1015.8 |
| 20260506225345 | 74 | 196 | 4.3 | 8.7 | 0.00 | 0.00 | 0.00 | 52 | 1015.9 |
| 20260506223347 | 74 | 211 | 5.2 | 10.4 | 0.00 | 0.00 | 0.00 | 51 | 1016.1 |
| 20260506222845 | 74 | 239 | 6.1 | 10.4 | 0.00 | 0.00 | 0.00 | 52 | 1016.1 |
| 20260506222345 | 74 | 214 | 5.2 | 10.4 | 0.00 | 0.00 | 0.00 | 51 | 1016.1 |
| 20260506221845 | 74 | 198 | 5.2 | 9.6 | 0.00 | 0.00 | 0.00 | 52 | 1016.2 |
| 20260506221341 | 74 | 230 | 4.3 | 9.6 | 0.00 | 0.00 | 0.00 | 52 | 1016.1 |
| 20260506220841 | 75 | 170 | 3.5 | 8.7 | 0.00 | 0.00 | 0.00 | 51 | 1016.3 |
| 20260506220341 | 74 | 150 | 3.5 | 9.6 | 0.00 | 0.00 | 0.00 | 51 | 1016.2 |
| 20260506215841 | 74 | 244 | 4.3 | 11.3 | 0.00 | 0.00 | 0.00 | 52 | 1016.3 |
| 20260506214841 | 73 | 222 | 6.1 | 12.2 | 0.00 | 0.00 | 0.00 | 52 | 1016.5 |
| 20260506213841 | 74 | 229 | 5.2 | 11.3 | 0.00 | 0.00 | 0.00 | 51 | 1016.6 |
| 20260506213341 | 74 | 216 | 3.5 | 8.7 | 0.00 | 0.00 | 0.00 | 52 | 1016.5 |
| 20260506212841 | 74 | 154 | 3.5 | 8.7 | 0.00 | 0.00 | 0.00 | 51 | 1016.4 |
| 20260506212340 | 74 | 227 | 3.5 | 9.6 | 0.00 | 0.00 | 0.00 | 53 | 1016.5 |
| 20260506211840 | 73 | 290 | 4.3 | 9.6 | 0.00 | 0.00 | 0.00 | 54 | 1016.6 |
| 20260506211342 | 73 | 227 | 3.5 | 8.7 | 0.00 | 0.00 | 0.00 | 53 | 1016.7 |
| 20260506205841 | 73 | 229 | 3.5 | 7.8 | 0.00 | 0.00 | 0.00 | 55 | 1016.7 |
| 20260506205341 | 73 | 208 | 5.2 | 10.4 | 0.00 | 0.00 | 0.00 | 54 | 1016.9 |
| 20260506204839 | 73 | 184 | 5.2 | 10.4 | 0.00 | 0.00 | 0.00 | 55 | 1016.8 |
| 20260506203324 | 73 | 218 | 4.3 | 8.7 | 0.00 | 0.00 | 0.00 | 53 | 1017.0 |
| 20260506202818 | 73 | 199 | 4.3 | 10.4 | 0.00 | 0.00 | 0.00 | 54 | 1017.1 |
| 20260506202312 | 72 | 224 | 3.5 | 10.4 | 0.00 | 0.00 | 0.00 | 54 | 1017.2 |
| 20260506201812 | 73 | 167 | 3.5 | 10.4 | 0.00 | 0.00 | 0.00 | 53 | 1017.1 |
| 20260506201313 | 73 | 290 | 2.6 | 7.0 | 0.00 | 0.00 | 0.00 | 51 | 1017.3 |
| 20260506200813 | 72 | 217 | 2.6 | 6.1 | 0.00 | 0.00 | 0.00 | 51 | 1017.4 |
| 20260506200311 | 73 | 196 | 2.6 | 6.1 | 0.00 | 0.00 | 0.00 | 50 | 1017.4 |
| 20260506195811 | 72 | 340 | 2.6 | 6.1 | 0.00 | 0.00 | 0.00 | 51 | 1017.3 |
| 20260506195310 | 72 | 15 | 2.6 | 6.1 | 0.00 | 0.00 | 0.00 | 51 | 1017.6 |
| 20260506194808 | 72 | 190 | 3.5 | 7.8 | 0.00 | 0.00 | 0.00 | 53 | 1017.7 |
| 20260506194308 | 71 | 221 | 2.6 | 7.8 | 0.00 | 0.00 | 0.00 | 51 | 1017.7 |
| 20260506193806 | 72 | 198 | 1.7 | 7.0 | 0.00 | 0.00 | 0.00 | 52 | 1017.7 |
| 20260506193307 | 71 | 315 | 1.7 | 7.0 | 0.00 | 0.00 | 0.00 | 52 | 1017.7 |
| 20260506192307 | 71 | 221 | 3.5 | 7.8 | 0.00 | 0.00 | 0.00 | 53 | 1017.9 |
| 20260506191806 | 71 | 246 | 3.5 | 7.8 | 0.00 | 0.00 | 0.00 | 53 | 1017.9 |
| 20260506191304 | 71 | 231 | 2.6 | 7.8 | 0.00 | 0.00 | 0.00 | 52 | 1018.0 |
| 20260506190305 | 71 | 170 | 0.9 | 3.5 | 0.00 | 0.00 | 0.00 | 52 | 1018.1 |
| 20260506185759 | 70 | 351 | 0.9 | 3.5 | 0.00 | 0.00 | 0.00 | 55 | 1018.1 |
| 20260506185254 | 69 | 51 | 1.7 | 6.1 | 0.00 | 0.00 | 0.00 | 56 | 1018.2 |
| 20260506184746 | 68 | 166 | 3.5 | 8.7 | 0.00 | 0.00 | 0.00 | 56 | 1018.3 |
| 20260506183734 | 68 | 148 | 2.6 | 7.0 | 0.00 | 0.00 | 0.00 | 56 | 1018.3 |
| 20260506183228 | 69 | 200 | 2.6 | 6.1 | 0.00 | 0.00 | 0.00 | 56 | 1018.4 |
| 20260506182721 | 68 | 309 | 2.6 | 7.0 | 0.00 | 0.00 | 0.00 | 56 | 1018.4 |
| 20260506182216 | 68 | 254 | 2.6 | 7.0 | 0.00 | 0.00 | 0.00 | 57 | 1018.4 |
| 20260506181712 | 68 | 245 | 1.7 | 7.0 | 0.00 | 0.00 | 0.00 | 57 | 1018.5 |
| 20260506181204 | 68 | 254 | 1.7 | 6.1 | 0.00 | 0.00 | 0.00 | 57 | 1018.4 |
| 20260506180659 | 67 | 240 | 1.7 | 3.5 | 0.00 | 0.00 | 0.00 | 58 | 1018.5 |
| 20260506180152 | 67 | 189 | 1.7 | 4.3 | 0.00 | 0.00 | 0.00 | 58 | 1018.5 |
| 20260506175646 | 67 | 259 | 0.9 | 4.3 | 0.00 | 0.00 | 0.00 | 60 | 1018.6 |
| 20260506175140 | 66 | 161 | 1.7 | 7.0 | 0.00 | 0.00 | 0.00 | 61 | 1018.5 |
| 20260506174634 | 66 | 145 | 1.7 | 7.0 | 0.00 | 0.00 | 0.00 | 58 | 1018.6 |
| 20260506174128 | 66 | 240 | 1.7 | 5.2 | 0.00 | 0.00 | 0.00 | 60 | 1018.6 |
| 20260506173623 | 66 | 132 | 1.7 | 4.3 | 0.00 | 0.00 | 0.00 | 60 | 1018.5 |
| 20260506173116 | 65 | 159 | 1.7 | 6.1 | 0.00 | 0.00 | 0.00 | 61 | 1018.5 |
| 20260506172611 | 65 | 170 | 2.6 | 7.8 | 0.00 | 0.00 | 0.00 | 60 | 1018.5 |
| 20260506172104 | 65 | 88 | 2.6 | 7.8 | 0.00 | 0.00 | 0.00 | 60 | 1018.6 |
| 20260506171558 | 65 | 184 | 1.7 | 6.1 | 0.00 | 0.00 | 0.00 | 60 | 1018.6 |
| 20260506171054 | 65 | 171 | 1.7 | 6.1 | 0.00 | 0.00 | 0.00 | 60 | 1018.6 |
| 20260506170546 | 65 | 151 | 0.9 | 4.3 | 0.00 | 0.00 | 0.00 | 61 | 1018.6 |
| 20260506170040 | 65 | 333 | 1.7 | 5.2 | 0.00 | 0.00 | 0.00 | 61 | 1018.5 |
| 20260506165535 | 64 | 103 | 0.9 | 5.2 | 0.00 | 0.00 | 0.00 | 61 | 1018.7 |
| 20260506165028 | 64 | 154 | 0.9 | 3.5 | 0.00 | 0.00 | 0.00 | 62 | 1018.6 |
| 20260506164523 | 64 | 238 | 0.9 | 4.3 | 0.00 | 0.00 | 0.00 | 63 | 1018.7 |
| 20260506164016 | 64 | 239 | 0.9 | 4.3 | 0.00 | 0.00 | 0.00 | 63 | 1018.7 |
| 20260506163510 | 64 | 263 | 1.7 | 4.3 | 0.00 | 0.00 | 0.00 | 63 | 1018.7 |
| 20260506163005 | 64 | 157 | 1.7 | 4.3 | 0.00 | 0.00 | 0.00 | 63 | 1018.6 |
| 20260506162458 | 64 | 44 | 0.9 | 3.5 | 0.00 | 0.00 | 0.00 | 62 | 1018.7 |
| 20260506161951 | 64 | 22 | 0.9 | 3.5 | 0.00 | 0.00 | 0.00 | 64 | 1018.7 |
| 20260506161447 | 63 | 90 | 1.7 | 4.3 | 0.00 | 0.00 | 0.00 | 65 | 1018.7 |
| 20260506160939 | 63 | 103 | 1.7 | 4.3 | 0.00 | 0.00 | 0.00 | 66 | 1018.6 |
| 20260506155929 | 63 | 35 | 0.9 | 3.5 | 0.00 | 0.00 | 0.00 | 66 | 1018.6 |
| 20260506155422 | 63 | 119 | 0.0 | 3.5 | 0.00 | 0.00 | 0.00 | 67 | 1018.5 |
| 20260506154410 | 63 | 73 | 0.9 | 3.5 | 0.00 | 0.00 | 0.00 | 69 | 1018.7 |
| 20260506153904 | 63 | 85 | 0.9 | 3.5 | 0.00 | 0.00 | 0.00 | 69 | 1018.7 |
| 20260506153359 | 62 | 62 | 0.9 | 2.6 | 0.00 | 0.00 | 0.00 | 70 | 1018.7 |
| 20260506152851 | 62 | 84 | 0.9 | 2.6 | 0.00 | 0.00 | 0.00 | 69 | 1018.7 |
| 20260506152346 | 62 | 0 | 0.0 | 2.6 | 0.00 | 0.00 | 0.00 | 71 | 1018.7 |
| 20260506151840 | 62 | 59 | 0.0 | 2.6 | 0.00 | 0.00 | 0.00 | 72 | 1018.7 |
| 20260506151334 | 61 | 86 | 0.0 | 0.0 | 0.00 | 0.00 | 0.00 | 74 | 1018.7 |
| 20260506150322 | 60 | 157 | 0.0 | 0.0 | 0.00 | 0.00 | 0.00 | 76 | 1018.5 |
| 20260506145817 | 60 | 169 | 0.0 | 0.0 | 0.00 | 0.00 | 0.00 | 77 | 1018.6 |
| 20260506145310 | 60 | 350 | 0.0 | 0.0 | 0.00 | 0.00 | 0.00 | 78 | 1018.6 |
| 20260506144803 | 60 | 350 | 0.0 | 0.9 | 0.00 | 0.00 | 0.00 | 79 | 1018.6 |
| 20260506144258 | 59 | 41 | 0.0 | 1.7 | 0.00 | 0.00 | 0.00 | 81 | 1018.5 |
| 20260506143752 | 58 | 38 | 0.0 | 1.7 | 0.00 | 0.00 | 0.00 | 82 | 1018.4 |
| 20260506143246 | 57 | 9 | 0.0 | 1.7 | 0.00 | 0.00 | 0.00 | 84 | 1018.4 |
| 20260506142744 | 56 | 22 | 0.0 | 1.7 | 0.00 | 0.00 | 0.00 | 85 | 1018.6 |
| 20260506142244 | 56 | 336 | 0.0 | 1.7 | 0.00 | 0.00 | 0.00 | 85 | 1018.6 |
| 20260506141744 | 55 | 350 | 0.0 | 1.7 | 0.00 | 0.00 | 0.00 | 85 | 1018.5 |
| 20260506141240 | 55 | 351 | 0.9 | 2.6 | 0.00 | 0.00 | 0.00 | 85 | 1018.4 |
| 20260506140738 | 55 | 331 | 0.9 | 2.6 | 0.00 | 0.00 | 0.00 | 86 | 1018.6 |
| 20260506140238 | 54 | 11 | 0.9 | 2.6 | 0.00 | 0.00 | 0.00 | 87 | 1018.6 |
| 20260506135738 | 54 | 14 | 0.9 | 3.5 | 0.00 | 0.00 | 0.00 | 88 | 1018.5 |
| 20260506134738 | 53 | 49 | 0.0 | 2.6 | 0.00 | 0.00 | 0.00 | 90 | 1018.4 |
| 20260506134239 | 52 | 340 | 0.9 | 2.6 | 0.00 | 0.00 | 0.00 | 91 | 1018.4 |
| 20260506133739 | 52 | 32 | 0.9 | 2.6 | 0.00 | 0.00 | 0.00 | 91 | 1018.4 |
| 20260506133236 | 52 | 34 | 0.0 | 1.7 | 0.00 | 0.00 | 0.00 | 91 | 1018.3 |
| 20260506132736 | 51 | 344 | 0.0 | 1.7 | 0.00 | 0.00 | 0.00 | 92 | 1018.3 |
| 20260506132231 | 51 | 30 | 0.9 | 1.7 | 0.00 | 0.00 | 0.00 | 91 | 1018.2 |
| 20260506131229 | 51 | 344 | 0.0 | 1.7 | 0.00 | 0.00 | 0.00 | 92 | 1018.0 |
| 20260506130731 | 51 | 350 | 0.0 | 1.7 | 0.00 | 0.00 | 0.00 | 91 | 1018.0 |
| 20260506130228 | 51 | 351 | 0.0 | 1.7 | 0.00 | 0.00 | 0.00 | 92 | 1018.0 |
| 20260506125727 | 51 | 311 | 0.0 | 1.7 | 0.00 | 0.00 | 0.00 | 92 | 1017.8 |
| 20260506125221 | 51 | 333 | 0.0 | 1.7 | 0.00 | 0.00 | 0.00 | 92 | 1017.8 |
| 20260506124717 | 51 | 350 | 0.9 | 2.6 | 0.00 | 0.00 | 0.00 | 92 | 1017.8 |
| 20260506123714 | 51 | 351 | 0.9 | 2.6 | 0.00 | 0.01 | 0.00 | 92 | 1017.5 |
| 20260506123211 | 51 | 347 | 0.9 | 2.6 | 0.00 | 0.01 | 0.00 | 91 | 1017.4 |
| 20260506122212 | 51 | 5 | 0.9 | 2.6 | 0.00 | 0.01 | 0.00 | 91 | 1017.4 |
| 20260506121711 | 51 | 0 | 0.0 | 1.7 | 0.00 | 0.01 | 0.00 | 92 | 1017.4 |
| 20260506121212 | 51 | 349 | 0.0 | 0.0 | 0.00 | 0.01 | 0.00 | 92 | 1017.3 |
| 20260506120711 | 51 | 344 | 0.0 | 0.0 | 0.00 | 0.01 | 0.00 | 91 | 1017.3 |
| 20260506120211 | 51 | 344 | 0.0 | 0.0 | 0.00 | 0.01 | 0.00 | 91 | 1017.3 |
| 20260506115712 | 51 | 344 | 0.0 | 1.7 | 0.00 | 0.01 | 0.00 | 91 | 1017.4 |
| 20260506115212 | 51 | 351 | 0.0 | 1.7 | 0.00 | 0.01 | 0.00 | 91 | 1017.4 |
| 20260506114713 | 51 | 351 | 0.0 | 0.9 | 0.00 | 0.01 | 0.00 | 91 | 1017.4 |
| 20260506114212 | 51 | 355 | 0.0 | 0.0 | 0.00 | 0.01 | 0.00 | 90 | 1017.3 |
| 20260506113212 | 51 | 343 | 0.0 | 0.0 | 0.00 | 0.01 | 0.00 | 90 | 1017.4 |
| 20260506112712 | 51 | 343 | 0.0 | 0.0 | 0.00 | 0.01 | 0.00 | 90 | 1017.2 |
| 20260506112211 | 51 | 343 | 0.0 | 0.9 | 0.00 | 0.02 | 0.00 | 90 | 1017.3 |
| 20260506111711 | 51 | 343 | 0.0 | 0.9 | 0.00 | 0.02 | 0.00 | 90 | 1017.3 |
| 20260506111212 | 51 | 355 | 0.0 | 0.0 | 0.00 | 0.03 | 0.00 | 90 | 1017.3 |
| 20260506110712 | 51 | 355 | 0.0 | 0.0 | 0.00 | 0.04 | 0.00 | 90 | 1017.3 |
| 20260506110213 | 51 | 355 | 0.0 | 0.0 | 0.00 | 0.06 | 0.00 | 90 | 1017.2 |
| 20260506105212 | 52 | 355 | 0.0 | 0.0 | 0.00 | 0.08 | 0.00 | 90 | 1017.4 |
| 20260506104712 | 52 | 355 | 0.0 | 0.0 | 0.00 | 0.09 | 0.00 | 90 | 1017.4 |
| 20260506104211 | 52 | 346 | 0.0 | 0.0 | 0.00 | 0.09 | 0.00 | 90 | 1017.5 |
| 20260506103711 | 52 | 346 | 0.0 | 0.0 | 0.00 | 0.09 | 0.00 | 90 | 1017.5 |
| 20260506103212 | 52 | 346 | 0.0 | 0.0 | 0.00 | 0.09 | 0.00 | 90 | 1017.4 |
| 20260506102712 | 52 | 346 | 0.0 | 0.0 | 0.00 | 0.10 | 0.00 | 90 | 1017.4 |
| 20260506102204 | 52 | 346 | 0.0 | 0.0 | 0.00 | 0.10 | 0.00 | 89 | 1017.5 |
| 20260506101659 | 52 | 346 | 0.0 | 0.0 | 0.00 | 0.10 | 0.00 | 89 | 1017.4 |
| 20260506101153 | 53 | 346 | 0.0 | 0.0 | 0.00 | 0.11 | 0.00 | 89 | 1017.5 |
| 20260506100647 | 53 | 346 | 0.0 | 0.0 | 0.00 | 0.12 | 0.00 | 89 | 1017.4 |
| 20260506095636 | 53 | 5 | 0.0 | 0.0 | 0.00 | 0.14 | 0.00 | 89 | 1017.5 |
| 20260506095129 | 53 | 5 | 0.0 | 0.0 | 0.00 | 0.16 | 0.00 | 90 | 1017.6 |
| 20260506094117 | 53 | 5 | 0.0 | 1.7 | 0.00 | 0.19 | 0.00 | 90 | 1017.5 |
| 20260506093613 | 53 | 5 | 0.0 | 1.7 | 0.00 | 0.20 | 0.00 | 90 | 1017.7 |
| 20260506093105 | 53 | 343 | 0.0 | 0.0 | 0.00 | 0.21 | 0.00 | 90 | 1017.6 |
| 20260506092559 | 52 | 350 | 0.0 | 0.0 | 0.00 | 0.22 | 0.00 | 90 | 1017.6 |
| 20260506092053 | 52 | 340 | 0.0 | 0.0 | 0.00 | 0.23 | 0.00 | 90 | 1017.7 |